M I D A S
Marine Information and Data Acquisition System
Tripno 2202 of the Zeeleeuw from 2011-10-20 06:37:34 to 2011-10-20 15:03:50
Back to CruiseResearch ActivitiesStationsMapUnderway DataData graphs

EquipmentUnitsComments
TimeDGPSUTC
LatitudeDGPSDM.mWGS84
LongitudeDGPSDM.mWGS84
SpeedMeteo Stationm/sRelative wind speed
DirectionMeteo StationdegRelative wind direction
TemperatureMeteo Stationdeg CelciusAir temperature
PressureMeteo StationPaAtmospheric pressure
HumidityMeteo Station%Relative humidity
Missing or incorrect values are displayed as -999
Metereological data collected by the RV Zeeleeuw from 2011-10-20 06:34:08 to 2011-10-20 15:12:48
                                                                                    Next 1000 lines
Time Latitude Longitude Speed Direction Temperature Pressure Humidity
2011-10-20 06:34:18 51°13.637 2°56.013 4.5 31 9.4 102460 32
2011-10-20 06:34:23 51°13.638 2°56.009 4.8 27 9.5 102450 32
2011-10-20 06:34:28 51°13.639 2°56.005 3.8 32 9.5 102450 32
2011-10-20 06:34:33 51°13.641 2°56 4.7 74 9.4 102450 31
2011-10-20 06:34:39 51°13.643 2°55.993 4.7 33 9.4 102450 31
2011-10-20 06:34:45 51°13.645 2°55.985 5.8 76 9.4 102450 31
2011-10-20 06:34:51 51°13.647 2°55.977 5.9 36 9.4 102450 31
2011-10-20 06:34:56 51°13.65 2°55.971 5 74 9.4 102450 29
2011-10-20 06:35:01 51°13.652 2°55.964 5.8 33 9.4 102450 29
2011-10-20 06:35:06 51°13.653 2°55.955 6.1 78 9.4 102450 31
2011-10-20 06:35:11 51°13.654 2°55.947 5.9 31 9.4 102450 31
2011-10-20 06:35:16 51°13.656 2°55.939 5.9 25 9.4 102450 31
2011-10-20 06:35:21 51°13.657 2°55.932 5.2 30 9.4 102450 31
2011-10-20 06:35:26 51°13.659 2°55.924 6.4 76 9.4 102460 31
2011-10-20 06:35:31 51°13.66 2°55.916 5.6 36 9.4 102460 31
2011-10-20 06:35:36 51°13.662 2°55.909 6.8 19 9.4 102460 31
2011-10-20 06:35:41 51°13.664 2°55.901 5.2 33 9.4 102460 31
2011-10-20 06:35:47 51°13.667 2°55.891 6.7 77 9.4 102450 31
2011-10-20 06:35:51 51°13.668 2°55.885 6.2 30 9.4 102450 31
2011-10-20 06:35:56 51°13.671 2°55.876 5.4 24 9.4 102460 30
2011-10-20 06:36:01 51°13.674 2°55.868 6.7 35 9.4 102460 30
2011-10-20 06:36:06 51°13.677 2°55.859 4.8 76 9.4 102460 32
2011-10-20 06:36:11 51°13.68 2°55.85 7.2 30 9.4 102460 32
2011-10-20 06:36:17 51°13.684 2°55.839 6.4 22 9.4 102460 32
2011-10-20 06:36:21 51°13.687 2°55.832 7 36 9.4 102460 32
2011-10-20 06:36:26 51°13.691 2°55.823 6.4 79 9.4 102450 31
2011-10-20 06:36:32 51°13.695 2°55.812 4.4 38 9.4 102450 31
2011-10-20 06:36:37 51°13.699 2°55.803 4.7 75 9.5 102450 31
2011-10-20 06:36:42 51°13.704 2°55.794 7.8 32 9.5 102450 31
2011-10-20 06:36:46 51°13.707 2°55.787 4.9 75 9.5 102460 31
2011-10-20 06:36:52 51°13.713 2°55.776 7.2 38 9.5 102460 31
2011-10-20 06:36:57 51°13.718 2°55.767 7 74 9.5 102460 31
2011-10-20 06:37:01 51°13.721 2°55.76 6.3 32 9.5 102460 31
2011-10-20 06:37:06 51°13.726 2°55.751 6.7 78 9.5 102460 31
2011-10-20 06:37:11 51°13.731 2°55.743 3.9 37 9.5 102460 31
2011-10-20 06:37:17 51°13.737 2°55.732 4.4 21 9.5 102460 31
2011-10-20 06:37:21 51°13.741 2°55.726 4.2 30 9.5 102460 31
2011-10-20 06:37:26 51°13.746 2°55.718 4.2 75 9.5 102460 30
2011-10-20 06:37:31 51°13.752 2°55.71 3.6 39 9.5 102460 30
2011-10-20 06:37:36 51°13.758 2°55.702 5.6 26 9.6 102460 30
2011-10-20 06:37:42 51°13.765 2°55.693 4.2 32 9.6 102460 30
2011-10-20 06:37:46 51°13.77 2°55.688 5.3 78 9.7 102450 31
2011-10-20 06:37:51 51°13.776 2°55.681 4.7 39 9.7 102450 31
2011-10-20 06:37:56 51°13.783 2°55.675 5.1 77 9.8 102450 32
2011-10-20 06:38:01 51°13.79 2°55.67 5.1 37 9.8 102450 32
2011-10-20 06:38:06 51°13.797 2°55.664 7.1 75 9.9 102450 31
2011-10-20 06:38:11 51°13.804 2°55.659 7 37 9.9 102450 31
2011-10-20 06:38:16 51°13.811 2°55.654 6.6 20 9.9 102450 31
2011-10-20 06:38:21 51°13.818 2°55.649 6.8 31 9.9 102450 31
2011-10-20 06:38:27 51°13.827 2°55.644 6.8 72 9.9 102450 30
2011-10-20 06:38:31 51°13.832 2°55.64 7.4 37 9.9 102450 30
2011-10-20 06:38:36 51°13.839 2°55.636 7.9 80 9.9 102450 30
2011-10-20 06:38:41 51°13.848 2°55.631 7.8 37 9.9 102450 30
2011-10-20 06:38:46 51°13.855 2°55.627 6.9 81 9.8 102450 30
2011-10-20 06:38:51 51°13.861 2°55.625 7.1 33 9.8 102450 30
2011-10-20 06:38:57 51°13.87 2°55.621 8.4 24 9.8 102450 31
2011-10-20 06:39:02 51°13.877 2°55.619 5.8 37 9.8 102450 31
2011-10-20 06:39:07 51°13.884 2°55.617 6.7 25 9.8 102450 31
2011-10-20 06:39:11 51°13.889 2°55.615 7.4 35 9.8 102450 31
2011-10-20 06:39:16 51°13.896 2°55.614 7.7 25 9.7 102450 30
2011-10-20 06:39:21 51°13.902 2°55.613 7 34 9.7 102450 30
2011-10-20 06:39:25 51°13.908 2°55.613 7.6 79 9.7 102450 31
2011-10-20 06:39:30 51°13.914 2°55.613 8.5 35 9.7 102450 31
2011-10-20 06:39:36 51°13.92 2°55.614 7.2 41 9.7 102450 31
2011-10-20 06:39:41 51°13.925 2°55.615 7 39 9.7 102450 31
2011-10-20 06:39:46 51°13.931 2°55.616 7 38 9.7 102450 31
2011-10-20 06:39:51 51°13.936 2°55.618 8.4 38 9.7 102450 31
2011-10-20 06:39:56 51°13.94 2°55.62 7.7 38 9.6 102440 31
2011-10-20 06:40:01 51°13.945 2°55.622 6.6 38 9.6 102440 31
2011-10-20 06:40:06 51°13.949 2°55.625 6.9 31 9.6 102440 30
2011-10-20 06:40:11 51°13.954 2°55.629 6.5 33 9.6 102440 30
2011-10-20 06:40:16 51°13.957 2°55.631 8.3 29 9.6 102440 29
2011-10-20 06:40:21 51°13.961 2°55.634 7 28 9.6 102440 29
2011-10-20 06:40:26 51°13.964 2°55.638 6.4 28 9.6 102440 31
2011-10-20 06:40:31 51°13.967 2°55.641 6.3 34 9.6 102440 31
2011-10-20 06:40:36 51°13.97 2°55.644 6 27 9.6 102440 31
2011-10-20 06:40:41 51°13.972 2°55.646 6.8 25 9.6 102440 31
2011-10-20 06:40:46 51°13.972 2°55.647 5.9 18 9.6 102440 31
2011-10-20 06:40:51 51°13.972 2°55.645 7.3 15 9.6 102440 31
2011-10-20 06:40:56 51°13.971 2°55.643 7.9 13 9.6 102440 32
2011-10-20 06:41:01 51°13.969 2°55.638 5.9 1 9.6 102440 32
2011-10-20 06:41:06 51°13.967 2°55.632 6.2 1 9.6 102440 32
2011-10-20 06:41:11 51°13.966 2°55.624 6.4 355 9.6 102440 32
2011-10-20 06:41:16 51°13.966 2°55.615 6.9 351 9.5 102440 31
2011-10-20 06:41:21 51°13.967 2°55.605 8.5 345 9.5 102440 31
2011-10-20 06:41:26 51°13.969 2°55.596 8.7 340 9.5 102440 31
2011-10-20 06:41:31 51°13.972 2°55.586 7.2 336 9.5 102440 31
2011-10-20 06:41:36 51°13.976 2°55.577 7.1 288 9.5 102440 30
2011-10-20 06:41:41 51°13.981 2°55.569 5.9 329 9.5 102440 30
2011-10-20 06:41:45 51°13.985 2°55.564 7.9 286 9.5 102440 31
2011-10-20 06:41:50 51°13.99 2°55.558 7.5 330 9.5 102440 31
2011-10-20 06:41:55 51°13.996 2°55.553 6.5 279 9.5 102440 30
2011-10-20 06:42:00 51°14.003 2°55.547 8.5 327 9.5 102440 30
2011-10-20 06:42:06 51°14.011 2°55.54 7.6 280 9.5 102440 31
2011-10-20 06:42:11 51°14.018 2°55.534 9.8 328 9.5 102440 31
2011-10-20 06:42:16 51°14.025 2°55.526 8.8 329 9.5 102440 31
2011-10-20 06:42:21 51°14.034 2°55.519 8.5 329 9.5 102440 31
2011-10-20 06:42:26 51°14.044 2°55.511 9.4 282 9.5 102440 31
2011-10-20 06:42:30 51°14.052 2°55.504 9.3 323 9.5 102440 31
2011-10-20 06:42:35 51°14.062 2°55.495 9.6 327 9.5 102440 31
2011-10-20 06:42:40 51°14.073 2°55.486 14.7 328 9.5 102440 31
2011-10-20 06:42:46 51°14.087 2°55.474 11.4 279 9.5 102440 31
2011-10-20 06:42:50 51°14.096 2°55.466 10.9 328 9.5 102440 31
2011-10-20 06:42:55 51°14.108 2°55.456 11.6 286 9.5 102440 31
2011-10-20 06:43:00 51°14.12 2°55.444 11.9 329 9.5 102440 31
2011-10-20 06:43:05 51°14.131 2°55.433 14.6 284 9.5 102440 32
2011-10-20 06:43:09 51°14.141 2°55.424 9.6 330 9.5 102440 32
2011-10-20 06:43:15 51°14.156 2°55.409 12 331 9.5 102430 33
2011-10-20 06:43:21 51°14.172 2°55.395 13.1 330 9.5 102430 33
2011-10-20 06:43:25 51°14.182 2°55.385 11.6 330 9.5 102430 31
2011-10-20 06:43:31 51°14.198 2°55.371 9.8 331 9.5 102430 31
2011-10-20 06:43:35 51°14.209 2°55.362 13.1 283 9.5 102430 29
2011-10-20 06:43:41 51°14.225 2°55.348 12.6 331 9.5 102430 29
2011-10-20 06:43:45 51°14.235 2°55.338 10.1 286 9.5 102430 31
2011-10-20 06:43:51 51°14.252 2°55.324 13.5 329 9.5 102430 31
2011-10-20 06:43:55 51°14.262 2°55.314 14.5 287 9.5 102440 30
2011-10-20 06:44:01 51°14.279 2°55.3 12.4 330 9.5 102440 30
2011-10-20 06:44:05 51°14.29 2°55.29 12.1 283 9.5 102440 30
2011-10-20 06:44:10 51°14.304 2°55.278 11.3 329 9.5 102440 30
2011-10-20 06:44:17 51°14.323 2°55.261 11.4 331 9.5 102440 30
2011-10-20 06:44:21 51°14.334 2°55.251 10.7 326 9.5 102440 30
2011-10-20 06:44:25 51°14.346 2°55.242 11.4 283 9.5 102440 29
2011-10-20 06:44:30 51°14.36 2°55.228 12.3 328 9.5 102440 29
2011-10-20 06:44:35 51°14.373 2°55.215 11 329 9.5 102440 30
2011-10-20 06:44:41 51°14.39 2°55.198 12.1 328 9.5 102440 30
2011-10-20 06:44:45 51°14.401 2°55.188 10.8 283 9.5 102450 30
2011-10-20 06:44:51 51°14.418 2°55.171 12.5 325 9.5 102450 30
2011-10-20 06:44:55 51°14.429 2°55.16 13.6 325 9.5 102430 30
2011-10-20 06:45:01 51°14.446 2°55.143 10.6 327 9.5 102430 30
2011-10-20 06:45:05 51°14.457 2°55.132 8.8 278 9.5 102430 30
2011-10-20 06:45:09 51°14.468 2°55.12 11.8 329 9.5 102430 30
2011-10-20 06:45:14 51°14.482 2°55.106 14.4 328 9.5 102440 30
2011-10-20 06:45:19 51°14.496 2°55.092 12.9 328 9.5 102440 30
2011-10-20 06:45:24 51°14.509 2°55.078 14.1 328 9.5 102430 30
2011-10-20 06:45:29 51°14.523 2°55.064 12.2 328 9.5 102430 30
2011-10-20 06:45:33 51°14.535 2°55.052 17 279 9.5 102440 29
2011-10-20 06:45:38 51°14.549 2°55.038 11.9 329 9.5 102440 29
2011-10-20 06:45:43 51°14.563 2°55.023 16.7 282 9.6 102430 32
2011-10-20 06:45:48 51°14.577 2°55.008 12 325 9.6 102430 32
2011-10-20 06:45:53 51°14.591 2°54.994 16.1 283 9.6 102410 33
2011-10-20 06:45:58 51°14.605 2°54.98 16.9 326 9.6 102410 33
2011-10-20 06:46:02 51°14.616 2°54.969 12.6 280 9.6 102440 32
2011-10-20 06:46:08 51°14.633 2°54.953 13.6 326 9.6 102440 32
2011-10-20 06:46:13 51°14.647 2°54.94 6.3 326 9.6 102420 31
2011-10-20 06:46:17 51°14.659 2°54.931 14 323 9.6 102420 31
2011-10-20 06:46:22 51°14.673 2°54.917 13.7 286 9.6 102430 30
2011-10-20 06:46:28 51°14.689 2°54.9 15.5 326 9.6 102430 30
2011-10-20 06:46:33 51°14.703 2°54.886 11.8 285 9.6 102450 30
2011-10-20 06:46:37 51°14.714 2°54.875 10.3 326 9.6 102450 30
2011-10-20 06:46:43 51°14.731 2°54.857 11.9 285 9.6 102430 31
2011-10-20 06:46:48 51°14.745 2°54.844 13.5 326 9.6 102430 31
2011-10-20 06:46:53 51°14.759 2°54.829 15.9 326 9.5 102440 31
2011-10-20 06:46:57 51°14.77 2°54.817 6.5 326 9.5 102440 31
2011-10-20 06:47:02 51°14.783 2°54.803 13.9 326 9.6 102430 32
2011-10-20 06:47:07 51°14.796 2°54.79 12.4 328 9.6 102430 32
2011-10-20 06:47:13 51°14.811 2°54.773 14.8 330 9.6 102440 31
2011-10-20 06:47:18 51°14.824 2°54.76 13.1 330 9.6 102440 31
2011-10-20 06:47:23 51°14.837 2°54.746 9.8 330 9.5 102430 31
2011-10-20 06:47:28 51°14.849 2°54.731 6.7 332 9.5 102430 31
2011-10-20 06:47:33 51°14.861 2°54.715 10.8 332 9.6 102420 32
2011-10-20 06:47:37 51°14.87 2°54.702 13.8 330 9.6 102420 32
2011-10-20 06:47:42 51°14.881 2°54.684 15.3 331 9.6 102450 32
2011-10-20 06:47:47 51°14.892 2°54.667 16.6 331 9.6 102450 32
2011-10-20 06:47:52 51°14.903 2°54.649 13.5 332 9.6 102440 31
2011-10-20 06:47:57 51°14.914 2°54.631 12.4 332 9.6 102440 31
2011-10-20 06:48:03 51°14.927 2°54.608 13.2 331 9.6 102420 31
2011-10-20 06:48:07 51°14.936 2°54.594 9.5 333 9.6 102420 31
2011-10-20 06:48:13 51°14.949 2°54.571 10.7 333 9.5 102440 30
2011-10-20 06:48:17 51°14.958 2°54.556 6.7 332 9.5 102440 30
2011-10-20 06:48:22 51°14.97 2°54.538 11.5 332 9.5 102430 31
2011-10-20 06:48:27 51°14.981 2°54.519 6 332 9.5 102430 31
2011-10-20 06:48:33 51°14.994 2°54.496 14.5 334 9.5 102450 32
2011-10-20 06:48:37 51°15.002 2°54.48 12.1 334 9.5 102450 32
2011-10-20 06:48:42 51°15.012 2°54.461 11.4 334 9.5 102450 31
2011-10-20 06:48:47 51°15.023 2°54.442 11.5 330 9.5 102450 31
2011-10-20 06:48:52 51°15.034 2°54.423 15.3 332 9.5 102440 31
2011-10-20 06:48:57 51°15.046 2°54.405 10.4 331 9.5 102440 31
2011-10-20 06:49:03 51°15.061 2°54.384 9.2 330 9.5 102430 31
2011-10-20 06:49:07 51°15.071 2°54.371 10.9 331 9.5 102430 31
2011-10-20 06:49:13 51°15.085 2°54.351 12.2 330 9.5 102440 31
2011-10-20 06:49:18 51°15.098 2°54.335 11.3 329 9.5 102440 31
2011-10-20 06:49:23 51°15.111 2°54.319 12.2 329 9.5 102440 31
2011-10-20 06:49:27 51°15.121 2°54.307 13.2 330 9.5 102440 31
2011-10-20 06:49:33 51°15.137 2°54.288 7 332 9.5 102440 31
2011-10-20 06:49:38 51°15.15 2°54.272 15.1 330 9.5 102440 31
2011-10-20 06:49:43 51°15.163 2°54.257 11.5 330 9.5 102440 31
2011-10-20 06:49:48 51°15.177 2°54.241 11.9 332 9.5 102440 31
2011-10-20 06:49:53 51°15.19 2°54.227 6.9 333 9.5 102430 33
2011-10-20 06:49:57 51°15.201 2°54.214 17.3 330 9.5 102430 33
2011-10-20 06:50:03 51°15.217 2°54.196 13.5 330 9.6 102440 34
2011-10-20 06:50:07 51°15.228 2°54.184 4.2 330 9.6 102440 34
2011-10-20 06:50:13 51°15.243 2°54.167 14 329 9.6 102450 33
2011-10-20 06:50:17 51°15.254 2°54.155 13.4 331 9.6 102450 33
2011-10-20 06:50:23 51°15.27 2°54.137 13 329 9.6 102430 32
2011-10-20 06:50:27 51°15.282 2°54.126 15.3 329 9.6 102430 32
2011-10-20 06:50:32 51°15.296 2°54.112 12.4 329 9.6 102440 32
2011-10-20 06:50:37 51°15.31 2°54.098 11.8 328 9.6 102440 32
2011-10-20 06:50:43 51°15.327 2°54.083 11.1 327 9.6 102440 32
2011-10-20 06:50:48 51°15.34 2°54.07 10.3 329 9.6 102440 32
2011-10-20 06:50:52 51°15.352 2°54.06 11.9 329 9.5 102450 30
2011-10-20 06:50:57 51°15.366 2°54.046 12.9 329 9.5 102450 30
2011-10-20 06:51:02 51°15.379 2°54.033 10.6 328 9.5 102450 32
2011-10-20 06:51:07 51°15.393 2°54.019 13.9 329 9.5 102450 32
2011-10-20 06:51:12 51°15.406 2°54.005 9.1 328 9.5 102450 31
2011-10-20 06:51:17 51°15.42 2°53.991 10.3 331 9.5 102450 31
2011-10-20 06:51:22 51°15.433 2°53.976 13 330 9.5 102440 32
2011-10-20 06:51:27 51°15.446 2°53.962 14.4 331 9.5 102440 32
2011-10-20 06:51:32 51°15.46 2°53.947 12.2 331 9.5 102450 32
2011-10-20 06:51:37 51°15.473 2°53.933 5.7 331 9.5 102450 32
2011-10-20 06:51:43 51°15.489 2°53.914 11.5 330 9.5 102470 32
2011-10-20 06:51:47 51°15.5 2°53.902 13.4 331 9.5 102470 32
2011-10-20 06:51:52 51°15.513 2°53.887 11.8 336 9.5 102460 31
2011-10-20 06:51:58 51°15.528 2°53.867 13.9 331 9.5 102460 31
2011-10-20 06:52:03 51°15.541 2°53.851 17.6 335 9.5 102450 33
2011-10-20 06:52:08 51°15.553 2°53.835 15.7 335 9.5 102450 33
2011-10-20 06:52:13 51°15.566 2°53.818 13.5 335 9.6 102450 34
2011-10-20 06:52:18 51°15.578 2°53.802 12.3 336 9.6 102450 34
2011-10-20 06:52:23 51°15.59 2°53.785 18 337 9.6 102430 34
2011-10-20 06:52:28 51°15.602 2°53.768 4.5 337 9.6 102430 34
2011-10-20 06:52:34 51°15.617 2°53.748 11.7 336 9.6 102440 33
2011-10-20 06:52:38 51°15.627 2°53.734 12.7 335 9.6 102440 33
2011-10-20 06:52:43 51°15.639 2°53.717 5 335 9.5 102430 31
2011-10-20 06:52:48 51°15.651 2°53.7 15.1 335 9.5 102430 31
2011-10-20 06:52:53 51°15.663 2°53.684 14.1 336 9.5 102430 32
2011-10-20 06:52:58 51°15.675 2°53.667 7 334 9.5 102430 32
2011-10-20 06:53:03 51°15.687 2°53.651 12.5 335 9.6 102450 33
2011-10-20 06:53:08 51°15.7 2°53.636 11.5 331 9.6 102450 33
2011-10-20 06:53:13 51°15.713 2°53.62 7.4 330 9.5 102450 31
2011-10-20 06:53:18 51°15.727 2°53.605 14.2 328 9.5 102450 31
2011-10-20 06:53:23 51°15.74 2°53.59 11.3 330 9.5 102450 32
2011-10-20 06:53:27 51°15.751 2°53.578 12.3 329 9.5 102450 32
2011-10-20 06:53:32 51°15.765 2°53.563 7 330 9.5 102430 31
2011-10-20 06:53:37 51°15.778 2°53.548 11.2 329 9.5 102430 31
2011-10-20 06:53:42 51°15.792 2°53.534 11.6 330 9.5 102450 32
2011-10-20 06:53:48 51°15.809 2°53.517 10.6 329 9.5 102450 32
2011-10-20 06:53:52 51°15.82 2°53.506 16.6 331 9.6 102440 33
2011-10-20 06:53:57 51°15.834 2°53.492 14.8 329 9.6 102440 33
2011-10-20 06:54:02 51°15.848 2°53.478 13.2 328 9.6 102450 33
2011-10-20 06:54:07 51°15.863 2°53.464 14.1 334 9.6 102450 33
2011-10-20 06:54:12 51°15.877 2°53.451 14.4 332 9.6 102440 33
2011-10-20 06:54:17 51°15.891 2°53.438 14.8 331 9.6 102440 33
2011-10-20 06:54:22 51°15.905 2°53.424 13.4 329 9.6 102450 34
2011-10-20 06:54:27 51°15.919 2°53.41 15.8 330 9.6 102450 34
2011-10-20 06:54:32 51°15.933 2°53.398 7.8 329 9.6 102430 34
2011-10-20 06:54:37 51°15.948 2°53.386 14.4 328 9.6 102430 34
2011-10-20 06:54:43 51°15.965 2°53.373 13.6 328 9.6 102430 34
2011-10-20 06:54:48 51°15.98 2°53.362 18.2 328 9.6 102430 34
2011-10-20 06:54:53 51°15.996 2°53.352 6.5 330 9.6 102440 33
2011-10-20 06:54:58 51°16.011 2°53.342 18.4 328 9.6 102440 33
2011-10-20 06:55:03 51°16.026 2°53.333 21.5 327 9.6 102430 32
2011-10-20 06:55:07 51°16.038 2°53.327 16.1 326 9.6 102430 32
2011-10-20 06:55:13 51°16.056 2°53.317 13.7 325 9.6 102450 33
2011-10-20 06:55:17 51°16.069 2°53.311 6.7 325 9.6 102450 33
2011-10-20 06:55:22 51°16.084 2°53.303 17.7 327 9.6 102440 34
2011-10-20 06:55:27 51°16.1 2°53.295 13.5 327 9.6 102440 34
2011-10-20 06:55:32 51°16.115 2°53.286 16.9 327 9.6 102440 33
2011-10-20 06:55:37 51°16.131 2°53.278 16.7 328 9.6 102440 33
2011-10-20 06:55:42 51°16.146 2°53.27 16.2 328 9.5 102410 33
2011-10-20 06:55:47 51°16.162 2°53.262 15.1 327 9.5 102410 33
2011-10-20 06:55:52 51°16.178 2°53.253 15.3 327 9.6 102430 34
2011-10-20 06:55:57 51°16.193 2°53.245 6.8 328 9.6 102430 34
2011-10-20 06:56:02 51°16.209 2°53.236 14.9 327 9.5 102440 34
2011-10-20 06:56:07 51°16.224 2°53.227 16.1 328 9.5 102440 34
2011-10-20 06:56:13 51°16.243 2°53.215 16.3 327 9.5 102430 31
2011-10-20 06:56:17 51°16.255 2°53.208 12.2 328 9.5 102430 31
2011-10-20 06:56:22 51°16.271 2°53.198 14.4 330 9.5 102430 32
2011-10-20 06:56:28 51°16.29 2°53.186 12.3 329 9.5 102430 32
2011-10-20 06:56:33 51°16.305 2°53.176 7.6 328 9.5 102440 32
2011-10-20 06:56:38 51°16.32 2°53.167 8 328 9.5 102440 32
2011-10-20 06:56:42 51°16.332 2°53.159 12.8 326 9.5 102440 34
2011-10-20 06:56:47 51°16.348 2°53.151 13 324 9.5 102440 34
2011-10-20 06:56:52 51°16.363 2°53.142 12.6 324 9.5 102450 34
2011-10-20 06:56:57 51°16.378 2°53.132 16.6 326 9.5 102450 34
2011-10-20 06:57:03 51°16.396 2°53.121 10.4 325 9.6 102440 34
2011-10-20 06:57:08 51°16.412 2°53.111 14.8 323 9.6 102440 34
2011-10-20 06:57:14 51°16.43 2°53.1 11.5 324 9.6 102440 35
2011-10-20 06:57:17 51°16.439 2°53.093 17.7 324 9.6 102440 35
2011-10-20 06:57:23 51°16.457 2°53.082 10.8 321 9.6 102430 35
2011-10-20 06:57:27 51°16.469 2°53.073 6.4 322 9.6 102430 35
2011-10-20 06:57:34 51°16.49 2°53.059 12.2 326 9.6 102440 35
2011-10-20 06:57:37 51°16.499 2°53.052 13.3 323 9.6 102440 35
2011-10-20 06:57:42 51°16.514 2°53.042 17.4 324 9.6 102450 33
2011-10-20 06:57:47 51°16.529 2°53.031 15.2 324 9.6 102450 33
2011-10-20 06:57:53 51°16.547 2°53.018 14.7 323 9.6 102430 33
2011-10-20 06:57:57 51°16.559 2°53.009 15.8 324 9.6 102430 33
2011-10-20 06:58:03 51°16.577 2°52.996 13.3 325 9.5 102440 33
2011-10-20 06:58:07 51°16.59 2°52.987 15.2 323 9.5 102440 33
2011-10-20 06:58:13 51°16.608 2°52.975 17.4 322 9.5 102430 33
2011-10-20 06:58:17 51°16.62 2°52.966 12.5 325 9.5 102430 33
2011-10-20 06:58:23 51°16.639 2°52.953 19.2 325 9.5 102440 33
2011-10-20 06:58:27 51°16.651 2°52.945 13 324 9.5 102440 33
2011-10-20 06:58:33 51°16.67 2°52.932 14.7 323 9.5 102450 33
2011-10-20 06:58:38 51°16.685 2°52.922 14.1 324 9.5 102450 33
2011-10-20 06:58:42 51°16.697 2°52.914 7.2 323 9.5 102430 34
2011-10-20 06:58:47 51°16.712 2°52.904 16.3 324 9.5 102430 34
2011-10-20 06:58:52 51°16.727 2°52.895 19.4 323 9.5 102430 31
2011-10-20 06:58:57 51°16.743 2°52.885 12.3 321 9.5 102430 31
2011-10-20 06:59:02 51°16.758 2°52.875 22.7 322 9.5 102450 33
2011-10-20 06:59:07 51°16.772 2°52.866 14.2 322 9.5 102450 33
2011-10-20 06:59:13 51°16.79 2°52.855 13.4 321 9.5 102460 33
2011-10-20 06:59:17 51°16.802 2°52.847 12.2 320 9.5 102460 33
2011-10-20 06:59:22 51°16.817 2°52.837 4.4 322 9.5 102420 32
2011-10-20 06:59:28 51°16.836 2°52.826 13.2 322 9.5 102420 32
2011-10-20 06:59:32 51°16.848 2°52.818 15.4 323 9.5 102430 32
2011-10-20 06:59:37 51°16.863 2°52.808 10.4 326 9.5 102430 32
2011-10-20 06:59:42 51°16.879 2°52.799 13.2 323 9.4 102410 32
2011-10-20 06:59:47 51°16.894 2°52.789 12.8 324 9.4 102410 32
2011-10-20 06:59:53 51°16.913 2°52.777 12.9 324 9.4 102430 32
2011-10-20 06:59:57 51°16.925 2°52.769 11.7 324 9.4 102430 32
2011-10-20 07:00:02 51°16.941 2°52.759 13.9 322 9.4 102440 33
2011-10-20 07:00:07 51°16.956 2°52.749 7.1 329 9.4 102440 33
2011-10-20 07:00:12 51°16.972 2°52.739 15.8 327 9.4 102440 32
2011-10-20 07:00:17 51°16.988 2°52.73 14.6 325 9.4 102440 32
2011-10-20 07:00:22 51°17.004 2°52.721 7.5 325 9.4 102440 33
2011-10-20 07:00:27 51°17.02 2°52.714 15.2 323 9.4 102440 33
2011-10-20 07:00:32 51°17.037 2°52.707 13.3 323 9.5 102430 34
2011-10-20 07:00:37 51°17.053 2°52.7 14.3 323 9.5 102430 34
2011-10-20 07:00:42 51°17.07 2°52.694 4.9 323 9.5 102440 34
2011-10-20 07:00:47 51°17.086 2°52.688 16.4 323 9.5 102440 34
2011-10-20 07:00:52 51°17.103 2°52.683 7.2 322 9.5 102440 33
2011-10-20 07:00:57 51°17.119 2°52.678 7.1 323 9.5 102440 33
2011-10-20 07:01:02 51°17.136 2°52.673 11.5 322 9.5 102440 32
2011-10-20 07:01:07 51°17.152 2°52.668 13.9 322 9.5 102440 32
2011-10-20 07:01:12 51°17.169 2°52.664 15.4 321 9.5 102430 33
2011-10-20 07:01:17 51°17.186 2°52.659 12.8 323 9.5 102430 33
2011-10-20 07:01:22 51°17.203 2°52.655 14.1 322 9.5 102430 33
2011-10-20 07:01:28 51°17.223 2°52.65 14.3 323 9.5 102430 33
2011-10-20 07:01:32 51°17.236 2°52.646 14.6 324 9.5 102420 31
2011-10-20 07:01:37 51°17.252 2°52.64 12.1 325 9.5 102420 31
2011-10-20 07:01:42 51°17.268 2°52.636 11.4 327 9.5 102440 33
2011-10-20 07:01:47 51°17.284 2°52.63 10 326 9.5 102440 33
2011-10-20 07:01:52 51°17.3 2°52.626 12.8 326 9.5 102420 32
2011-10-20 07:01:57 51°17.316 2°52.621 15.4 322 9.5 102420 32
2011-10-20 07:02:03 51°17.335 2°52.615 7 324 9.5 102430 32
2011-10-20 07:02:07 51°17.348 2°52.611 14.7 322 9.5 102430 32
2011-10-20 07:02:12 51°17.364 2°52.607 16.1 323 9.5 102470 32
2011-10-20 07:02:17 51°17.38 2°52.602 13.5 323 9.5 102470 32
2011-10-20 07:02:22 51°17.396 2°52.596 12.9 326 9.5 102440 32
2011-10-20 07:02:27 51°17.412 2°52.591 13.2 323 9.5 102440 32
2011-10-20 07:02:32 51°17.429 2°52.587 13.3 324 9.4 102430 31
2011-10-20 07:02:37 51°17.445 2°52.581 12.5 323 9.4 102430 31
2011-10-20 07:02:42 51°17.461 2°52.575 16.9 323 9.4 102430 31
2011-10-20 07:02:47 51°17.478 2°52.569 12.8 324 9.4 102430 31
2011-10-20 07:02:52 51°17.494 2°52.563 14.1 322 9.4 102430 31
2011-10-20 07:02:57 51°17.51 2°52.557 11.7 323 9.4 102430 31
2011-10-20 07:03:02 51°17.527 2°52.551 7.3 326 9.3 102460 31
2011-10-20 07:03:07 51°17.543 2°52.544 7.1 323 9.3 102460 31
2011-10-20 07:03:12 51°17.559 2°52.539 15.7 324 9.4 102440 32
2011-10-20 07:03:17 51°17.575 2°52.534 14.1 320 9.4 102440 32
2011-10-20 07:03:22 51°17.592 2°52.529 4.5 321 9.4 102450 33
2011-10-20 07:03:27 51°17.608 2°52.526 11.2 319 9.4 102450 33
2011-10-20 07:03:33 51°17.628 2°52.52 13.1 320 9.4 102440 33
2011-10-20 07:03:37 51°17.641 2°52.518 12.3 322 9.4 102440 33
2011-10-20 07:03:42 51°17.657 2°52.514 14.3 319 9.4 102440 31
2011-10-20 07:03:48 51°17.676 2°52.511 6 319 9.4 102440 31
2011-10-20 07:03:53 51°17.692 2°52.508 11 325 9.4 102450 32
2011-10-20 07:03:57 51°17.705 2°52.505 14.4 321 9.4 102450 32
2011-10-20 07:04:02 51°17.722 2°52.504 14.7 322 9.4 102430 33
2011-10-20 07:04:08 51°17.742 2°52.501 12 321 9.4 102430 33
2011-10-20 07:04:12 51°17.755 2°52.5 10.3 320 9.4 102420 32
2011-10-20 07:04:18 51°17.775 2°52.498 12.9 316 9.4 102420 32
2011-10-20 07:04:23 51°17.792 2°52.497 11.1 317 9.4 102440 34
2011-10-20 07:04:27 51°17.806 2°52.496 6.7 315 9.4 102440 34
2011-10-20 07:04:32 51°17.823 2°52.495 13.1 25 9.4 102430 34
2011-10-20 07:04:37 51°17.839 2°52.494 11.1 35 9.4 102430 34
2011-10-20 07:04:42 51°17.856 2°52.493 13.7 315 9.4 102430 34
2011-10-20 07:04:47 51°17.874 2°52.493 6.1 37 9.4 102430 34
2011-10-20 07:04:53 51°17.894 2°52.491 13.8 316 9.5 102460 35
2011-10-20 07:04:57 51°17.908 2°52.491 4.6 318 9.5 102460 35
2011-10-20 07:05:02 51°17.925 2°52.49 4.5 316 9.5 102430 35
2011-10-20 07:05:07 51°17.942 2°52.49 16.8 316 9.5 102430 35
2011-10-20 07:05:12 51°17.959 2°52.489 7.2 317 9.5 102450 36
2011-10-20 07:05:17 51°17.976 2°52.488 11.2 316 9.5 102450 36
2011-10-20 07:05:23 51°17.997 2°52.488 14.1 24 9.5 102430 35
2011-10-20 07:05:28 51°18.014 2°52.487 6.5 36 9.5 102430 35
2011-10-20 07:05:32 51°18.028 2°52.487 14.4 21 9.5 102440 34
2011-10-20 07:05:37 51°18.044 2°52.486 13.9 317 9.5 102440 34
2011-10-20 07:05:43 51°18.064 2°52.485 15.9 316 9.5 102430 33
2011-10-20 07:05:48 51°18.081 2°52.484 12 35 9.5 102430 33
2011-10-20 07:05:53 51°18.097 2°52.483 13.2 24 9.5 102430 32
2011-10-20 07:05:57 51°18.111 2°52.483 7.2 316 9.5 102430 32
2011-10-20 07:06:02 51°18.128 2°52.481 7.1 24 9.5 102420 32
2011-10-20 07:06:08 51°18.147 2°52.479 16.1 316 9.5 102420 32
2011-10-20 07:06:13 51°18.164 2°52.478 12.4 317 9.4 102440 32
2011-10-20 07:06:17 51°18.177 2°52.476 12.7 320 9.4 102440 32
2011-10-20 07:06:22 51°18.194 2°52.474 14.5 319 9.4 102440 32
2011-10-20 07:06:27 51°18.21 2°52.472 14.1 321 9.4 102440 32
2011-10-20 07:06:32 51°18.227 2°52.47 17.1 321 9.4 102420 32
2011-10-20 07:06:37 51°18.244 2°52.468 9.8 322 9.4 102420 32
2011-10-20 07:06:42 51°18.26 2°52.466 13.5 320 9.5 102440 33
2011-10-20 07:06:47 51°18.276 2°52.464 13.5 321 9.5 102440 33
2011-10-20 07:06:52 51°18.293 2°52.462 12 320 9.4 102440 31
2011-10-20 07:06:57 51°18.31 2°52.46 13.7 320 9.4 102440 31
2011-10-20 07:07:02 51°18.326 2°52.458 12.7 319 9.5 102450 33
2011-10-20 07:07:07 51°18.342 2°52.456 14 321 9.5 102450 33
2011-10-20 07:07:12 51°18.359 2°52.453 11.8 318 9.4 102440 33
2011-10-20 07:07:17 51°18.375 2°52.451 6.4 317 9.4 102440 33
2011-10-20 07:07:22 51°18.391 2°52.449 13.6 317 9.4 102440 32
2011-10-20 07:07:27 51°18.408 2°52.447 12.5 316 9.4 102440 32
2011-10-20 07:07:32 51°18.424 2°52.445 16.2 318 9.4 102450 32
2011-10-20 07:07:37 51°18.44 2°52.443 12.5 319 9.4 102450 32
2011-10-20 07:07:42 51°18.456 2°52.441 14.8 319 9.5 102430 33
2011-10-20 07:07:47 51°18.473 2°52.439 11.4 319 9.5 102430 33
2011-10-20 07:07:52 51°18.49 2°52.438 12.5 320 9.4 102450 32
2011-10-20 07:07:57 51°18.507 2°52.436 9.2 318 9.4 102450 32
2011-10-20 07:08:02 51°18.523 2°52.434 11.2 319 9.4 102450 32
2011-10-20 07:08:07 51°18.54 2°52.433 12.4 318 9.4 102450 32
2011-10-20 07:08:12 51°18.556 2°52.432 11.7 318 9.4 102460 32
2011-10-20 07:08:18 51°18.575 2°52.431 8.3 317 9.4 102460 32
2011-10-20 07:08:22 51°18.588 2°52.43 11 322 9.4 102460 32
2011-10-20 07:08:27 51°18.604 2°52.428 7.1 321 9.4 102460 32
2011-10-20 07:08:33 51°18.623 2°52.428 12.8 317 9.4 102460 31
2011-10-20 07:08:37 51°18.636 2°52.427 12.2 318 9.4 102460 31
2011-10-20 07:08:42 51°18.652 2°52.427 14.6 317 9.4 102450 32
2011-10-20 07:08:47 51°18.669 2°52.425 13.4 319 9.4 102450 32
2011-10-20 07:08:53 51°18.688 2°52.424 12.9 319 9.4 102450 33
2011-10-20 07:08:57 51°18.701 2°52.423 13.2 318 9.4 102450 33
2011-10-20 07:09:02 51°18.717 2°52.422 13 320 9.4 102450 32
2011-10-20 07:09:07 51°18.733 2°52.421 11.3 32 9.4 102450 32
2011-10-20 07:09:12 51°18.749 2°52.419 16.1 316 9.4 102450 32
2011-10-20 07:09:17 51°18.765 2°52.418 15.9 316 9.4 102450 32
2011-10-20 07:09:22 51°18.782 2°52.416 13.6 318 9.4 102460 33
2011-10-20 07:09:27 51°18.798 2°52.414 13.9 315 9.4 102460 33
2011-10-20 07:09:32 51°18.815 2°52.413 16.1 315 9.5 102440 32
2011-10-20 07:09:37 51°18.831 2°52.411 6.5 32 9.5 102440 32
2011-10-20 07:09:42 51°18.848 2°52.409 10 25 9.5 102440 33
2011-10-20 07:09:47 51°18.865 2°52.407 11.2 315 9.5 102440 33
2011-10-20 07:09:52 51°18.881 2°52.404 11.8 316 9.4 102460 33
2011-10-20 07:09:57 51°18.898 2°52.402 8.6 35 9.4 102460 33
2011-10-20 07:10:02 51°18.914 2°52.4 7.2 23 9.5 102440 33
2011-10-20 07:10:08 51°18.932 2°52.398 16.4 36 9.5 102440 33
2011-10-20 07:10:13 51°18.948 2°52.396 14.7 23 9.5 102450 34
2011-10-20 07:10:17 51°18.961 2°52.394 7.7 35 9.5 102450 34
2011-10-20 07:10:23 51°18.981 2°52.392 15.7 22 9.5 102460 32
2011-10-20 07:10:27 51°18.994 2°52.391 14.9 32 9.5 102460 32
2011-10-20 07:10:32 51°19.01 2°52.39 16.4 24 9.5 102420 32
2011-10-20 07:10:37 51°19.027 2°52.389 6.8 37 9.5 102420 32
2011-10-20 07:10:42 51°19.043 2°52.388 14.1 24 9.5 102430 32
2011-10-20 07:10:47 51°19.06 2°52.388 11.7 32 9.5 102430 32
2011-10-20 07:10:53 51°19.079 2°52.387 11.2 20 9.5 102420 32
2011-10-20 07:10:58 51°19.095 2°52.386 11.1 34 9.5 102420 32
2011-10-20 07:11:03 51°19.11 2°52.385 5.9 316 9.5 102450 32
2011-10-20 07:11:08 51°19.126 2°52.386 16.6 319 9.5 102450 32
2011-10-20 07:11:13 51°19.141 2°52.386 10.6 319 9.4 102420 32
2011-10-20 07:11:19 51°19.16 2°52.385 12.5 320 9.4 102420 32
2011-10-20 07:11:24 51°19.175 2°52.384 10.5 320 9.5 102380 34
2011-10-20 07:11:29 51°19.191 2°52.384 6.6 321 9.5 102380 34
2011-10-20 07:11:34 51°19.206 2°52.383 10.7 320 9.5 102450 33
2011-10-20 07:11:39 51°19.222 2°52.382 11.7 317 9.5 102450 33
2011-10-20 07:11:45 51°19.24 2°52.381 12.5 322 9.5 102460 32
2011-10-20 07:11:49 51°19.253 2°52.379 14.8 320 9.5 102460 32
2011-10-20 07:11:54 51°19.269 2°52.378 15.4 318 9.4 102470 32
2011-10-20 07:11:59 51°19.285 2°52.375 7.2 315 9.4 102470 32
2011-10-20 07:12:04 51°19.301 2°52.374 12.3 24 9.4 102450 32
2011-10-20 07:12:09 51°19.318 2°52.371 10.3 33 9.4 102450 32
2011-10-20 07:12:14 51°19.333 2°52.369 12.6 319 9.4 102450 30
2011-10-20 07:12:19 51°19.349 2°52.367 11.8 39 9.4 102450 30
2011-10-20 07:12:24 51°19.365 2°52.365 6.7 278 9.4 102460 32
2011-10-20 07:12:29 51°19.381 2°52.362 4.4 321 9.4 102460 32
2011-10-20 07:12:33 51°19.394 2°52.36 12.7 319 9.4 102460 33
2011-10-20 07:12:38 51°19.411 2°52.358 16.2 320 9.4 102460 33
2011-10-20 07:12:44 51°19.43 2°52.357 12.1 317 9.4 102460 33
2011-10-20 07:12:49 51°19.446 2°52.355 8 318 9.4 102460 33
2011-10-20 07:12:54 51°19.462 2°52.353 12.8 318 9.5 102440 34
2011-10-20 07:12:59 51°19.478 2°52.352 16.5 316 9.5 102440 34
2011-10-20 07:13:04 51°19.494 2°52.351 6.5 316 9.5 102460 34
2011-10-20 07:13:09 51°19.51 2°52.349 13.9 316 9.5 102460 34
2011-10-20 07:13:13 51°19.523 2°52.348 14.1 317 9.5 102430 34
2011-10-20 07:13:18 51°19.539 2°52.347 11.7 38 9.5 102430 34
2011-10-20 07:13:23 51°19.555 2°52.345 12.1 316 9.5 102450 33
2011-10-20 07:13:28 51°19.571 2°52.343 10.4 316 9.5 102450 33
2011-10-20 07:13:33 51°19.587 2°52.341 12 315 9.4 102440 32
2011-10-20 07:13:37 51°19.601 2°52.34 7 317 9.4 102440 32
2011-10-20 07:13:42 51°19.616 2°52.338 13 23 9.4 102470 32
2011-10-20 07:13:47 51°19.632 2°52.337 10.7 36 9.4 102470 32
2011-10-20 07:13:52 51°19.648 2°52.335 10.5 316 9.4 102440 33
2011-10-20 07:13:57 51°19.665 2°52.333 11.7 316 9.4 102440 33
2011-10-20 07:14:02 51°19.681 2°52.331 15.6 319 9.4 102430 32
2011-10-20 07:14:07 51°19.698 2°52.328 12.5 317 9.4 102430 32
2011-10-20 07:14:12 51°19.714 2°52.326 6.5 317 9.4 102460 33
2011-10-20 07:14:17 51°19.731 2°52.324 16.3 315 9.4 102460 33
2011-10-20 07:14:22 51°19.747 2°52.322 13.9 315 9.5 102440 33
2011-10-20 07:14:27 51°19.764 2°52.32 14.1 316 9.5 102440 33
2011-10-20 07:14:33 51°19.784 2°52.318 12 24 9.5 102450 34
2011-10-20 07:14:37 51°19.797 2°52.317 10.9 315 9.5 102450 34
2011-10-20 07:14:42 51°19.813 2°52.315 12.6 19 9.5 102450 34
2011-10-20 07:14:47 51°19.83 2°52.314 10.3 34 9.5 102450 34
2011-10-20 07:14:52 51°19.846 2°52.312 11.8 318 9.5 102450 31
2011-10-20 07:14:57 51°19.862 2°52.31 11.1 33 9.5 102450 31
2011-10-20 07:15:02 51°19.879 2°52.309 16.7 18 9.4 102430 32
2011-10-20 07:15:07 51°19.895 2°52.309 6.5 320 9.4 102430 32
2011-10-20 07:15:12 51°19.911 2°52.307 12 320 9.5 102430 33
2011-10-20 07:15:17 51°19.928 2°52.306 16.5 318 9.5 102430 33
2011-10-20 07:15:22 51°19.944 2°52.305 10.3 320 9.5 102440 32
2011-10-20 07:15:27 51°19.961 2°52.303 10.7 321 9.5 102440 32
2011-10-20 07:15:32 51°19.977 2°52.302 11.5 320 9.5 102430 33
2011-10-20 07:15:37 51°19.994 2°52.3 13.2 321 9.5 102430 33
2011-10-20 07:15:42 51°20.01 2°52.298 11.5 319 9.5 102440 33
2011-10-20 07:15:47 51°20.027 2°52.297 10.7 320 9.5 102440 33
2011-10-20 07:15:52 51°20.043 2°52.296 11.3 318 9.4 102450 32
2011-10-20 07:15:57 51°20.059 2°52.294 10.8 320 9.4 102450 32
2011-10-20 07:16:02 51°20.076 2°52.293 9.1 317 9.4 102460 31
2011-10-20 07:16:07 51°20.093 2°52.291 12 323 9.4 102460 31
2011-10-20 07:16:12 51°20.11 2°52.29 12.2 319 9.4 102460 31
2011-10-20 07:16:17 51°20.127 2°52.289 13.9 316 9.4 102460 31
2011-10-20 07:16:22 51°20.143 2°52.287 12.3 317 9.4 102440 31
2011-10-20 07:16:27 51°20.16 2°52.286 10.5 320 9.4 102440 31
2011-10-20 07:16:32 51°20.177 2°52.284 7.8 320 9.4 102460 33
2011-10-20 07:16:37 51°20.193 2°52.282 6.6 318 9.4 102460 33
2011-10-20 07:16:42 51°20.21 2°52.28 14.2 317 9.4 102440 33
2011-10-20 07:16:47 51°20.226 2°52.278 6.2 317 9.4 102440 33
2011-10-20 07:16:52 51°20.242 2°52.276 13.1 317 9.4 102450 34
2011-10-20 07:16:57 51°20.259 2°52.274 15.4 317 9.4 102450 34
2011-10-20 07:17:02 51°20.275 2°52.271 11.1 315 9.4 102450 32
2011-10-20 07:17:07 51°20.291 2°52.268 13.1 36 9.4 102450 32
2011-10-20 07:17:13 51°20.31 2°52.265 13.9 316 9.4 102440 32
2011-10-20 07:17:18 51°20.325 2°52.263 15.1 317 9.4 102440 32
2011-10-20 07:17:24 51°20.343 2°52.26 12.6 321 9.4 102460 31
2011-10-20 07:17:29 51°20.358 2°52.258 14.3 319 9.4 102460 31
2011-10-20 07:17:34 51°20.374 2°52.256 12.6 323 9.4 102460 30
2011-10-20 07:17:39 51°20.39 2°52.254 14.5 321 9.4 102460 30
2011-10-20 07:17:44 51°20.406 2°52.252 15 319 9.4 102470 31
2011-10-20 07:17:49 51°20.422 2°52.249 13.2 320 9.4 102470 31
2011-10-20 07:17:53 51°20.435 2°52.247 11.7 320 9.4 102430 33
2011-10-20 07:17:58 51°20.451 2°52.244 12.5 322 9.4 102430 33
2011-10-20 07:18:03 51°20.467 2°52.242 12.1 322 9.4 102450 32
2011-10-20 07:18:08 51°20.483 2°52.239 6.6 320 9.4 102450 32
2011-10-20 07:18:13 51°20.499 2°52.236 14.4 321 9.4 102440 30
2011-10-20 07:18:17 51°20.512 2°52.234 14.3 319 9.4 102440 30
2011-10-20 07:18:22 51°20.528 2°52.231 11 322 9.4 102460 31
2011-10-20 07:18:27 51°20.544 2°52.229 6.3 321 9.4 102460 31
2011-10-20 07:18:32 51°20.561 2°52.228 11.8 320 9.4 102440 32
2011-10-20 07:18:37 51°20.577 2°52.226 10.5 319 9.4 102440 32
2011-10-20 07:18:42 51°20.593 2°52.225 14.4 318 9.4 102440 32
2011-10-20 07:18:47 51°20.609 2°52.224 13.6 320 9.4 102440 32
2011-10-20 07:18:53 51°20.627 2°52.223 12.3 317 9.4 102450 30
2011-10-20 07:18:58 51°20.643 2°52.222 13.7 316 9.4 102450 30
2011-10-20 07:19:03 51°20.659 2°52.221 12.3 318 9.4 102440 32
2011-10-20 07:19:08 51°20.674 2°52.22 11.5 31 9.4 102440 32
2011-10-20 07:19:13 51°20.69 2°52.218 6.4 316 9.4 102430 32
2011-10-20 07:19:17 51°20.702 2°52.218 5.5 37 9.4 102430 32
2011-10-20 07:19:22 51°20.718 2°52.216 13.7 315 9.4 102460 32
2011-10-20 07:19:27 51°20.734 2°52.215 11.9 316 9.4 102460 32
2011-10-20 07:19:32 51°20.75 2°52.213 13.2 316 9.4 102460 32
2011-10-20 07:19:37 51°20.766 2°52.212 7.2 317 9.4 102460 32
2011-10-20 07:19:42 51°20.782 2°52.21 13.7 316 9.4 102450 32
2011-10-20 07:19:47 51°20.799 2°52.208 14 318 9.4 102450 32
2011-10-20 07:19:52 51°20.815 2°52.206 13.7 316 9.4 102440 32
2011-10-20 07:19:57 51°20.831 2°52.203 11.9 321 9.4 102440 32
2011-10-20 07:20:02 51°20.847 2°52.201 11.4 321 9.5 102460 32
2011-10-20 07:20:07 51°20.863 2°52.199 11.3 319 9.5 102460 32
2011-10-20 07:20:12 51°20.879 2°52.196 14.4 321 9.5 102430 31
2011-10-20 07:20:17 51°20.895 2°52.193 10.9 320 9.5 102430 31
2011-10-20 07:20:22 51°20.911 2°52.19 12.9 320 9.5 102460 33
2011-10-20 07:20:27 51°20.928 2°52.187 13.2 323 9.5 102460 33
2011-10-20 07:20:32 51°20.944 2°52.185 10.9 321 9.5 102440 32
2011-10-20 07:20:37 51°20.96 2°52.182 12.1 318 9.5 102440 32
2011-10-20 07:20:42 51°20.977 2°52.179 12.7 320 9.4 102440 30
2011-10-20 07:20:47 51°20.993 2°52.177 12.2 320 9.4 102440 30
2011-10-20 07:20:52 51°21.009 2°52.176 10.5 319 9.5 102430 32
2011-10-20 07:20:57 51°21.026 2°52.175 10.9 317 9.5 102430 32
2011-10-20 07:21:02 51°21.042 2°52.175 5.7 317 9.5 102460 31
2011-10-20 07:21:07 51°21.059 2°52.174 14.5 319 9.5 102460 31
2011-10-20 07:21:12 51°21.075 2°52.175 11.4 317 9.5 102440 31
2011-10-20 07:21:17 51°21.092 2°52.175 12 317 9.5 102440 31
2011-10-20 07:21:22 51°21.109 2°52.176 10.6 316 9.4 102440 32
2011-10-20 07:21:27 51°21.126 2°52.176 10.8 315 9.4 102440 32
2011-10-20 07:21:32 51°21.143 2°52.177 11.3 316 9.4 102450 31
2011-10-20 07:21:37 51°21.16 2°52.178 9.9 317 9.4 102450 31
2011-10-20 07:21:42 51°21.177 2°52.18 11.9 20 9.4 102450 30
2011-10-20 07:21:47 51°21.194 2°52.18 10.8 319 9.4 102450 30
2011-10-20 07:21:53 51°21.214 2°52.182 9 319 9.4 102460 30
2011-10-20 07:21:57 51°21.227 2°52.183 10.9 318 9.4 102460 30
2011-10-20 07:22:02 51°21.243 2°52.185 10.5 318 9.4 102440 31
2011-10-20 07:22:07 51°21.26 2°52.186 9.9 316 9.4 102440 31
2011-10-20 07:22:12 51°21.276 2°52.187 12.8 316 9.4 102450 31
2011-10-20 07:22:17 51°21.291 2°52.188 10.8 316 9.4 102450 31
2011-10-20 07:22:22 51°21.308 2°52.19 9.5 318 9.4 102450 32
2011-10-20 07:22:27 51°21.324 2°52.19 9.6 319 9.4 102450 32
2011-10-20 07:22:32 51°21.34 2°52.191 14.2 322 9.4 102470 31
2011-10-20 07:22:37 51°21.357 2°52.192 12.7 326 9.4 102470 31
2011-10-20 07:22:42 51°21.373 2°52.191 14.3 324 9.4 102440 32
2011-10-20 07:22:47 51°21.389 2°52.191 12.4 322 9.4 102440 32
2011-10-20 07:22:52 51°21.406 2°52.191 13.8 322 9.4 102460 31
2011-10-20 07:22:57 51°21.423 2°52.191 13 322 9.4 102460 31
2011-10-20 07:23:02 51°21.439 2°52.19 10.5 322 9.5 102450 33
2011-10-20 07:23:07 51°21.456 2°52.19 12.1 324 9.5 102450 33
2011-10-20 07:23:12 51°21.472 2°52.189 13.2 323 9.4 102450 32
2011-10-20 07:23:17 51°21.488 2°52.188 11.2 323 9.4 102450 32
2011-10-20 07:23:22 51°21.505 2°52.188 11 324 9.4 102450 31
2011-10-20 07:23:27 51°21.522 2°52.187 15.5 323 9.4 102450 31
2011-10-20 07:23:33 51°21.542 2°52.187 12 322 9.4 102460 30
2011-10-20 07:23:37 51°21.555 2°52.186 10 321 9.4 102460 30
2011-10-20 07:23:42 51°21.571 2°52.186 9.3 322 9.4 102450 31
2011-10-20 07:23:47 51°21.587 2°52.185 12.8 320 9.4 102450 31
2011-10-20 07:23:52 51°21.603 2°52.186 15.1 323 9.4 102440 31
2011-10-20 07:23:57 51°21.619 2°52.186 9.9 323 9.4 102440 31
2011-10-20 07:24:02 51°21.635 2°52.187 15.7 321 9.3 102450 30
2011-10-20 07:24:07 51°21.651 2°52.188 14.9 321 9.3 102450 30
2011-10-20 07:24:12 51°21.666 2°52.188 13.6 321 9.4 102440 30
2011-10-20 07:24:17 51°21.682 2°52.189 11.4 324 9.4 102440 30
2011-10-20 07:24:22 51°21.698 2°52.19 13.1 322 9.4 102470 32
2011-10-20 07:24:27 51°21.715 2°52.19 13.5 321 9.4 102470 32
2011-10-20 07:24:33 51°21.734 2°52.191 14.3 281 9.4 102440 32
2011-10-20 07:24:37 51°21.747 2°52.192 6.3 321 9.4 102440 32
2011-10-20 07:24:42 51°21.763 2°52.193 14.3 321 9.4 102460 32
2011-10-20 07:24:47 51°21.779 2°52.194 11.2 321 9.4 102460 32
2011-10-20 07:24:52 51°21.795 2°52.195 13.4 322 9.4 102440 32
2011-10-20 07:24:57 51°21.812 2°52.196 16.1 316 9.4 102440 32
2011-10-20 07:25:02 51°21.828 2°52.197 10.1 316 9.4 102450 33
2011-10-20 07:25:07 51°21.844 2°52.198 10.7 316 9.4 102450 33
2011-10-20 07:25:12 51°21.861 2°52.2 8.9 316 9.4 102440 32
2011-10-20 07:25:17 51°21.877 2°52.201 11.6 317 9.4 102440 32
2011-10-20 07:25:22 51°21.894 2°52.202 9.5 316 9.4 102450 32
2011-10-20 07:25:27 51°21.91 2°52.203 10.5 319 9.4 102450 32
2011-10-20 07:25:33 51°21.929 2°52.205 11.6 316 9.4 102440 30
2011-10-20 07:25:38 51°21.945 2°52.205 12.3 316 9.4 102440 30
2011-10-20 07:25:43 51°21.961 2°52.206 9.2 282 9.4 102460 30
2011-10-20 07:25:48 51°21.977 2°52.207 10.2 316 9.4 102460 30
2011-10-20 07:25:53 51°21.994 2°52.207 11.3 317 9.4 102450 32
2011-10-20 07:25:57 51°22.007 2°52.207 12.4 315 9.4 102450 32
2011-10-20 07:26:02 51°22.023 2°52.206 4.5 25 9.3 102450 31
2011-10-20 07:26:07 51°22.04 2°52.206 10.8 318 9.3 102450 31
2011-10-20 07:26:13 51°22.059 2°52.206 10.8 317 9.4 102460 31
2011-10-20 07:26:17 51°22.073 2°52.205 13 32 9.4 102460 31
2011-10-20 07:26:22 51°22.089 2°52.204 6.3 317 9.3 102440 31
2011-10-20 07:26:27 51°22.106 2°52.205 11 315 9.3 102440 31
2011-10-20 07:26:32 51°22.123 2°52.205 11 316 9.3 102460 31
2011-10-20 07:26:37 51°22.139 2°52.204 11.5 32 9.3 102460 31
2011-10-20 07:26:42 51°22.156 2°52.205 11.5 22 9.4 102450 32
2011-10-20 07:26:47 51°22.172 2°52.204 11.7 36 9.4 102450 32
2011-10-20 07:26:53 51°22.193 2°52.203 11.5 24 9.3 102460 31
2011-10-20 07:26:57 51°22.206 2°52.203 16 317 9.3 102460 31
2011-10-20 07:27:02 51°22.222 2°52.203 9.8 18 9.4 102440 31
2011-10-20 07:27:08 51°22.242 2°52.203 14.4 29 9.4 102440 31
2011-10-20 07:27:13 51°22.258 2°52.203 14.2 315 9.4 102440 31
2011-10-20 07:27:18 51°22.274 2°52.203 3.8 316 9.4 102440 31
2011-10-20 07:27:23 51°22.29 2°52.203 13.7 318 9.4 102430 32
2011-10-20 07:27:28 51°22.306 2°52.203 9.8 321 9.4 102430 32
2011-10-20 07:27:33 51°22.322 2°52.203 15.9 320 9.4 102430 32
2011-10-20 07:27:37 51°22.335 2°52.204 14.5 317 9.4 102430 32
2011-10-20 07:27:42 51°22.352 2°52.205 10.4 317 9.4 102450 32
2011-10-20 07:27:47 51°22.368 2°52.205 13.3 319 9.4 102450 32
2011-10-20 07:27:52 51°22.384 2°52.206 11.7 321 9.4 102450 32
2011-10-20 07:27:57 51°22.401 2°52.206 10.4 318 9.4 102450 32
2011-10-20 07:28:02 51°22.417 2°52.207 12.3 319 9.4 102430 31
2011-10-20 07:28:07 51°22.434 2°52.208 8.3 319 9.4 102430 31
2011-10-20 07:28:12 51°22.45 2°52.209 8.8 318 9.4 102440 30
2011-10-20 07:28:17 51°22.467 2°52.21 11.8 316 9.4 102440 30
2011-10-20 07:28:22 51°22.483 2°52.21 10.6 317 9.4 102470 30
2011-10-20 07:28:27 51°22.5 2°52.212 10.6 317 9.4 102470 30
2011-10-20 07:28:32 51°22.517 2°52.212 14.9 315 9.4 102470 31
2011-10-20 07:28:37 51°22.534 2°52.214 13.7 319 9.4 102470 31
2011-10-20 07:28:42 51°22.55 2°52.215 12.9 320 9.4 102460 32
2011-10-20 07:28:47 51°22.567 2°52.216 11.2 319 9.4 102460 32
2011-10-20 07:28:53 51°22.587 2°52.217 5.8 320 9.4 102450 31
2011-10-20 07:28:57 51°22.6 2°52.218 11.6 318 9.4 102450 31
2011-10-20 07:29:02 51°22.617 2°52.219 10.1 321 9.4 102430 31
2011-10-20 07:29:07 51°22.634 2°52.22 14.7 323 9.4 102430 31
2011-10-20 07:29:12 51°22.65 2°52.222 9.7 324 9.4 102430 31
2011-10-20 07:29:17 51°22.667 2°52.223 11 321 9.4 102430 31
2011-10-20 07:29:22 51°22.684 2°52.223 15.9 319 9.4 102460 30
2011-10-20 07:29:27 51°22.7 2°52.223 12.1 319 9.4 102460 30
2011-10-20 07:29:32 51°22.717 2°52.224 14.3 322 9.4 102450 31
2011-10-20 07:29:37 51°22.733 2°52.224 14.4 320 9.4 102450 31
2011-10-20 07:29:42 51°22.75 2°52.224 7.2 320 9.4 102460 31
2011-10-20 07:29:47 51°22.767 2°52.224 6.7 319 9.4 102460 31
2011-10-20 07:29:52 51°22.783 2°52.225 13.3 319 9.4 102440 32
2011-10-20 07:29:57 51°22.8 2°52.226 10.5 320 9.4 102440 32
2011-10-20 07:30:02 51°22.816 2°52.226 10.4 321 9.4 102440 31
2011-10-20 07:30:07 51°22.833 2°52.227 14.6 320 9.4 102440 31
2011-10-20 07:30:12 51°22.85 2°52.226 14.1 318 9.4 102460 31
2011-10-20 07:30:17 51°22.867 2°52.226 14.8 317 9.4 102460 31
2011-10-20 07:30:22 51°22.883 2°52.226 13.6 316 9.4 102450 31
2011-10-20 07:30:27 51°22.899 2°52.224 14 325 9.4 102450 31
2011-10-20 07:30:32 51°22.916 2°52.224 14.7 320 9.4 102450 31
2011-10-20 07:30:37 51°22.932 2°52.223 13.4 319 9.4 102450 31
2011-10-20 07:30:42 51°22.949 2°52.223 11.9 319 9.4 102460 31
2011-10-20 07:30:47 51°22.966 2°52.223 11.4 319 9.4 102460 31
2011-10-20 07:30:52 51°22.983 2°52.222 12 320 9.4 102420 32
2011-10-20 07:30:57 51°23 2°52.222 13.2 319 9.4 102420 32
2011-10-20 07:31:02 51°23.016 2°52.222 13.8 320 9.5 102430 33
2011-10-20 07:31:07 51°23.033 2°52.222 13.9 320 9.5 102430 33
2011-10-20 07:31:12 51°23.05 2°52.223 13.7 322 9.4 102460 32
2011-10-20 07:31:17 51°23.066 2°52.222 11.9 322 9.4 102460 32
2011-10-20 07:31:22 51°23.082 2°52.224 14.9 318 9.4 102450 31
2011-10-20 07:31:27 51°23.098 2°52.224 11.4 317 9.4 102450 31
2011-10-20 07:31:32 51°23.115 2°52.223 15.7 320 9.4 102450 31
2011-10-20 07:31:37 51°23.131 2°52.223 12.6 320 9.4 102450 31
2011-10-20 07:31:43 51°23.149 2°52.223 9.1 318 9.4 102470 32
2011-10-20 07:31:48 51°23.164 2°52.222 10.4 317 9.4 102470 32
2011-10-20 07:31:53 51°23.18 2°52.223 14.2 319 9.4 102450 32
2011-10-20 07:31:57 51°23.192 2°52.222 9.2 319 9.4 102450 32
2011-10-20 07:32:02 51°23.208 2°52.223 11.6 317 9.4 102460 31
2011-10-20 07:32:07 51°23.224 2°52.223 11.2 318 9.4 102460 31
2011-10-20 07:32:12 51°23.241 2°52.224 13 315 9.3 102470 31
2011-10-20 07:32:17 51°23.256 2°52.225 13 315 9.3 102470 31
2011-10-20 07:32:22 51°23.273 2°52.226 10.2 315 9.3 102470 32
2011-10-20 07:32:27 51°23.289 2°52.227 6.6 317 9.3 102470 32
2011-10-20 07:32:33 51°23.309 2°52.227 13.4 319 9.3 102450 31
2011-10-20 07:32:37 51°23.322 2°52.226 9.3 317 9.3 102450 31
2011-10-20 07:32:42 51°23.339 2°52.226 12.8 318 9.3 102430 32
2011-10-20 07:32:47 51°23.355 2°52.226 10 316 9.3 102430 32
2011-10-20 07:32:52 51°23.371 2°52.226 12 316 9.3 102440 31
2011-10-20 07:32:57 51°23.388 2°52.226 9.7 35 9.3 102440 31
2011-10-20 07:33:02 51°23.404 2°52.226 9.6 316 9.3 102460 32
2011-10-20 07:33:07 51°23.421 2°52.225 11.2 316 9.3 102460 32
2011-10-20 07:33:12 51°23.438 2°52.225 10.2 316 9.3 102450 32
2011-10-20 07:33:17 51°23.455 2°52.225 11.4 315 9.3 102450 32
2011-10-20 07:33:22 51°23.472 2°52.226 10 316 9.3 102460 32
2011-10-20 07:33:27 51°23.489 2°52.225 11.1 316 9.3 102460 32
2011-10-20 07:33:32 51°23.507 2°52.226 11.2 317 9.3 102470 30
2011-10-20 07:33:37 51°23.524 2°52.225 9.6 320 9.3 102470 30
2011-10-20 07:33:42 51°23.541 2°52.225 8.1 318 9.3 102470 31
2011-10-20 07:33:47 51°23.558 2°52.224 8.3 37 9.3 102470 31
2011-10-20 07:33:52 51°23.575 2°52.225 9.7 315 9.3 102470 32
2011-10-20 07:33:57 51°23.593 2°52.224 13.5 317 9.3 102470 32
2011-10-20 07:34:02 51°23.61 2°52.224 11.6 316 9.3 102460 32
2011-10-20 07:34:07 51°23.627 2°52.224 13.5 316 9.3 102460 32
2011-10-20 07:34:12 51°23.644 2°52.224 12 24 9.3 102460 33
2011-10-20 07:34:17 51°23.661 2°52.224 11 38 9.3 102460 33
2011-10-20 07:34:22 51°23.678 2°52.224 13 22 9.3 102460 33
2011-10-20 07:34:27 51°23.695 2°52.224 8.3 315 9.3 102460 33
2011-10-20 07:34:32 51°23.712 2°52.223 11.1 319 9.3 102450 32
2011-10-20 07:34:37 51°23.729 2°52.223 5.4 320 9.3 102450 32
2011-10-20 07:34:42 51°23.746 2°52.223 13.1 317 9.4 102450 33
2011-10-20 07:34:47 51°23.763 2°52.223 9.4 318 9.4 102450 33
2011-10-20 07:34:52 51°23.78 2°52.223 4.4 317 9.3 102460 32
2011-10-20 07:34:57 51°23.797 2°52.223 11 317 9.3 102460 32
2011-10-20 07:35:02 51°23.814 2°52.223 12.8 322 9.4 102470 33
2011-10-20 07:35:07 51°23.831 2°52.223 14.9 323 9.4 102470 33
2011-10-20 07:35:13 51°23.85 2°52.224 12.2 318 9.4 102460 33
2011-10-20 07:35:17 51°23.864 2°52.224 6.7 323 9.4 102460 33
2011-10-20 07:35:22 51°23.88 2°52.225 10.1 321 9.4 102460 34
2011-10-20 07:35:27 51°23.896 2°52.226 11.4 320 9.4 102460 34
2011-10-20 07:35:33 51°23.916 2°52.226 11.9 322 9.4 102480 34
2011-10-20 07:35:37 51°23.929 2°52.226 13.3 319 9.4 102480 34
2011-10-20 07:35:42 51°23.945 2°52.226 12.3 321 9.4 102450 32
2011-10-20 07:35:47 51°23.962 2°52.225 10.5 321 9.4 102450 32
2011-10-20 07:35:53 51°23.981 2°52.226 10.6 318 9.4 102460 31
2011-10-20 07:35:58 51°23.997 2°52.226 8.9 319 9.4 102460 31
2011-10-20 07:36:03 51°24.013 2°52.226 10.1 322 9.4 102480 31
2011-10-20 07:36:08 51°24.029 2°52.226 5.4 322 9.4 102480 31
2011-10-20 07:36:13 51°24.045 2°52.226 8.9 320 9.4 102460 29
2011-10-20 07:36:17 51°24.058 2°52.226 12.2 322 9.4 102460 29
2011-10-20 07:36:22 51°24.074 2°52.226 11.9 323 9.4 102450 33
2011-10-20 07:36:28 51°24.092 2°52.226 13.2 327 9.4 102450 33
2011-10-20 07:36:33 51°24.109 2°52.226 8.2 326 9.4 102470 33
2011-10-20 07:36:38 51°24.125 2°52.225 10.5 321 9.4 102470 33
2011-10-20 07:36:43 51°24.141 2°52.225 4.4 322 9.4 102470 32
2011-10-20 07:36:48 51°24.157 2°52.224 13.7 325 9.4 102470 32
2011-10-20 07:36:53 51°24.173 2°52.223 9.8 325 9.4 102450 33
2011-10-20 07:36:57 51°24.186 2°52.224 12.7 322 9.4 102450 33
2011-10-20 07:37:02 51°24.203 2°52.223 13.4 323 9.5 102480 33
2011-10-20 07:37:07 51°24.219 2°52.223 14.5 324 9.5 102480 33
2011-10-20 07:37:12 51°24.236 2°52.222 10.9 326 9.5 102470 34
2011-10-20 07:37:17 51°24.253 2°52.222 14.8 324 9.5 102470 34
2011-10-20 07:37:22 51°24.27 2°52.221 8.5 323 9.5 102470 33
2011-10-20 07:37:27 51°24.286 2°52.22 9.6 321 9.5 102470 33
2011-10-20 07:37:33 51°24.306 2°52.22 12.9 320 9.5 102460 33
2011-10-20 07:37:38 51°24.321 2°52.219 16.3 322 9.5 102460 33
2011-10-20 07:37:43 51°24.338 2°52.219 12.6 322 9.5 102460 33
2011-10-20 07:37:48 51°24.354 2°52.219 14.9 323 9.5 102460 33
2011-10-20 07:37:53 51°24.37 2°52.219 10.6 282 9.5 102490 32
2011-10-20 07:37:57 51°24.384 2°52.219 4.4 321 9.5 102490 32
2011-10-20 07:38:02 51°24.4 2°52.219 9.6 321 9.5 102450 32
2011-10-20 07:38:07 51°24.417 2°52.219 11.7 319 9.5 102450 32
2011-10-20 07:38:12 51°24.434 2°52.22 11.1 319 9.5 102460 32
2011-10-20 07:38:17 51°24.451 2°52.22 12 316 9.5 102460 32
2011-10-20 07:38:22 51°24.468 2°52.221 12.1 319 9.5 102450 31
2011-10-20 07:38:27 51°24.484 2°52.221 11.9 320 9.5 102450 31
2011-10-20 07:38:32 51°24.501 2°52.22 4.9 317 9.5 102460 31
2011-10-20 07:38:37 51°24.518 2°52.219 10.4 321 9.5 102460 31
2011-10-20 07:38:42 51°24.535 2°52.219 6.4 321 9.5 102440 32
2011-10-20 07:38:47 51°24.552 2°52.219 11 317 9.5 102440 32
2011-10-20 07:38:52 51°24.568 2°52.218 13.3 318 9.5 102460 31
2011-10-20 07:38:57 51°24.584 2°52.218 15.2 317 9.5 102460 31
2011-10-20 07:39:02 51°24.601 2°52.217 12.7 320 9.6 102460 34
2011-10-20 07:39:07 51°24.618 2°52.216 12.8 320 9.6 102460 34
2011-10-20 07:39:12 51°24.635 2°52.215 13.7 319 9.5 102460 31
2011-10-20 07:39:17 51°24.652 2°52.214 10.3 315 9.5 102460 31
2011-10-20 07:39:22 51°24.669 2°52.213 9.4 317 9.5 102450 32
2011-10-20 07:39:27 51°24.686 2°52.213 17 321 9.5 102450 32
2011-10-20 07:39:33 51°24.705 2°52.211 14.7 320 9.5 102460 32
2011-10-20 07:39:37 51°24.718 2°52.211 9 319 9.5 102460 32
2011-10-20 07:39:42 51°24.735 2°52.21 12.9 320 9.5 102450 33
2011-10-20 07:39:47 51°24.752 2°52.21 13.7 316 9.5 102450 33
2011-10-20 07:39:52 51°24.768 2°52.21 13.2 320 9.5 102450 33
2011-10-20 07:39:58 51°24.786 2°52.21 17.4 318 9.5 102450 33
2011-10-20 07:40:03 51°24.801 2°52.21 13 318 9.5 102460 31
2011-10-20 07:40:08 51°24.817 2°52.21 13.5 320 9.5 102460 31
2011-10-20 07:40:13 51°24.833 2°52.211 10.1 316 9.5 102470 31
2011-10-20 07:40:18 51°24.849 2°52.211 12.2 316 9.5 102470 31
2011-10-20 07:40:23 51°24.865 2°52.212 14.1 317 9.5 102430 32
2011-10-20 07:40:28 51°24.881 2°52.212 10.9 318 9.5 102430 32
2011-10-20 07:40:32 51°24.894 2°52.212 15 318 9.5 102460 32
2011-10-20 07:40:37 51°24.91 2°52.212 11.8 317 9.5 102460 32
2011-10-20 07:40:42 51°24.927 2°52.211 16.4 319 9.5 102470 32
2011-10-20 07:40:47 51°24.943 2°52.211 9.7 318 9.5 102470 32
2011-10-20 07:40:52 51°24.959 2°52.211 14.4 20 9.5 102460 33
2011-10-20 07:40:57 51°24.975 2°52.212 14.8 33 9.5 102460 33
2011-10-20 07:41:02 51°24.99 2°52.213 11.1 20 9.5 102450 33
2011-10-20 07:41:07 51°25.006 2°52.214 13.5 31 9.5 102450 33
2011-10-20 07:41:12 51°25.023 2°52.214 11.6 316 9.5 102460 34
2011-10-20 07:41:17 51°25.039 2°52.215 12.6 36 9.5 102460 34
2011-10-20 07:41:22 51°25.055 2°52.215 10.2 316 9.5 102440 33
2011-10-20 07:41:27 51°25.072 2°52.216 14.6 34 9.5 102440 33
2011-10-20 07:41:32 51°25.089 2°52.216 12.6 25 9.5 102450 30
2011-10-20 07:41:37 51°25.106 2°52.216 13 35 9.5 102450 30
2011-10-20 07:41:42 51°25.122 2°52.216 12.9 22 9.4 102460 32
2011-10-20 07:41:47 51°25.139 2°52.216 14 32 9.4 102460 32
2011-10-20 07:41:53 51°25.159 2°52.215 13.1 316 9.4 102460 33
2011-10-20 07:41:57 51°25.173 2°52.215 15 318 9.4 102460 33
2011-10-20 07:42:02 51°25.189 2°52.212 12.2 320 9.4 102450 33
2011-10-20 07:42:07 51°25.206 2°52.209 12.1 320 9.4 102450 33
2011-10-20 07:42:12 51°25.223 2°52.205 5.3 321 9.4 102450 33
2011-10-20 07:42:17 51°25.239 2°52.2 14 320 9.4 102450 33
2011-10-20 07:42:22 51°25.255 2°52.195 15.2 320 9.4 102450 32
2011-10-20 07:42:27 51°25.271 2°52.19 12 320 9.4 102450 32
2011-10-20 07:42:33 51°25.291 2°52.183 14.2 319 9.4 102440 32
2011-10-20 07:42:37 51°25.304 2°52.178 11.8 320 9.4 102440 32
2011-10-20 07:42:42 51°25.32 2°52.173 11.8 319 9.4 102460 32
2011-10-20 07:42:47 51°25.336 2°52.166 13.6 322 9.4 102460 32
2011-10-20 07:42:52 51°25.352 2°52.161 14.1 320 9.4 102450 32
2011-10-20 07:42:57 51°25.368 2°52.155 10.5 318 9.4 102450 32
2011-10-20 07:43:02 51°25.384 2°52.149 9.5 319 9.4 102460 32
2011-10-20 07:43:07 51°25.401 2°52.144 14.5 319 9.4 102460 32
2011-10-20 07:43:12 51°25.416 2°52.138 12.5 318 9.4 102440 32
2011-10-20 07:43:17 51°25.433 2°52.132 10.6 319 9.4 102440 32
2011-10-20 07:43:22 51°25.449 2°52.126 11.1 318 9.4 102450 33
2011-10-20 07:43:27 51°25.466 2°52.121 4.4 319 9.4 102450 33
2011-10-20 07:43:32 51°25.482 2°52.116 11.4 321 9.4 102450 33
2011-10-20 07:43:37 51°25.498 2°52.11 13.1 320 9.4 102450 33
2011-10-20 07:43:42 51°25.515 2°52.104 11.1 319 9.4 102470 33
2011-10-20 07:43:47 51°25.531 2°52.1 16.8 316 9.4 102470 33
2011-10-20 07:43:53 51°25.551 2°52.094 12.4 317 9.4 102450 33
2011-10-20 07:43:57 51°25.563 2°52.09 12 317 9.4 102450 33
2011-10-20 07:44:02 51°25.58 2°52.085 14.1 320 9.4 102460 33
2011-10-20 07:44:07 51°25.596 2°52.081 6.2 320 9.4 102460 33
2011-10-20 07:44:13 51°25.614 2°52.077 11.2 318 9.4 102470 31
2011-10-20 07:44:18 51°25.629 2°52.073 15.1 317 9.4 102470 31
2011-10-20 07:44:23 51°25.645 2°52.07 14.9 319 9.4 102450 33
2011-10-20 07:44:28 51°25.661 2°52.065 12.9 317 9.4 102450 33
2011-10-20 07:44:33 51°25.676 2°52.062 6.8 283 9.4 102470 33
2011-10-20 07:44:37 51°25.688 2°52.058 6.2 315 9.4 102470 33
2011-10-20 07:44:42 51°25.704 2°52.054 13.2 316 9.4 102450 32
2011-10-20 07:44:47 51°25.719 2°52.05 13.2 316 9.4 102450 32
2011-10-20 07:44:53 51°25.738 2°52.044 12.2 320 9.4 102480 32
2011-10-20 07:44:57 51°25.751 2°52.041 11 315 9.4 102480 32
2011-10-20 07:45:02 51°25.767 2°52.036 14.3 318 9.4 102460 32
2011-10-20 07:45:07 51°25.783 2°52.032 11.9 323 9.4 102460 32
2011-10-20 07:45:12 51°25.798 2°52.029 10.9 321 9.4 102460 33
2011-10-20 07:45:17 51°25.814 2°52.025 12.3 322 9.4 102460 33
2011-10-20 07:45:23 51°25.833 2°52.02 14.3 320 9.4 102470 33
2011-10-20 07:45:28 51°25.848 2°52.016 10.6 319 9.4 102470 33
2011-10-20 07:45:33 51°25.864 2°52.011 15.8 320 9.4 102480 33
2011-10-20 07:45:37 51°25.877 2°52.008 12.1 321 9.4 102480 33
2011-10-20 07:45:42 51°25.893 2°52.003 13.9 321 9.4 102450 32
2011-10-20 07:45:47 51°25.909 2°51.999 6.6 324 9.4 102450 32
2011-10-20 07:45:52 51°25.925 2°51.993 13.2 323 9.4 102470 32
2011-10-20 07:45:57 51°25.941 2°51.989 15.2 321 9.4 102470 32
2011-10-20 07:46:02 51°25.957 2°51.984 10.7 322 9.4 102460 31
2011-10-20 07:46:07 51°25.974 2°51.979 10.6 323 9.4 102460 31
2011-10-20 07:46:13 51°25.992 2°51.974 13.1 323 9.4 102460 32
2011-10-20 07:46:17 51°26.005 2°51.971 12.3 320 9.4 102460 32
2011-10-20 07:46:22 51°26.021 2°51.966 13.5 323 9.4 102470 31
2011-10-20 07:46:27 51°26.037 2°51.962 12 318 9.4 102470 31
2011-10-20 07:46:32 51°26.053 2°51.958 11.6 320 9.4 102470 30
2011-10-20 07:46:37 51°26.069 2°51.954 12.9 319 9.4 102470 30
2011-10-20 07:46:42 51°26.085 2°51.95 10.1 320 9.4 102470 31
2011-10-20 07:46:47 51°26.101 2°51.945 12.6 319 9.4 102470 31
2011-10-20 07:46:52 51°26.117 2°51.941 9.2 318 9.4 102480 29
2011-10-20 07:46:57 51°26.133 2°51.936 13.8 320 9.4 102480 29
2011-10-20 07:47:02 51°26.148 2°51.932 13 323 9.4 102470 32
2011-10-20 07:47:07 51°26.164 2°51.927 13.6 318 9.4 102470 32
2011-10-20 07:47:12 51°26.18 2°51.923 7.2 320 9.4 102470 32
2011-10-20 07:47:17 51°26.196 2°51.918 12.9 317 9.4 102470 32
2011-10-20 07:47:22 51°26.212 2°51.913 6.2 318 9.4 102500 32
2011-10-20 07:47:27 51°26.228 2°51.909 14.7 319 9.4 102500 32
2011-10-20 07:47:32 51°26.243 2°51.905 10.1 318 9.4 102460 31
2011-10-20 07:47:37 51°26.259 2°51.901 14.5 318 9.4 102460 31
2011-10-20 07:47:42 51°26.275 2°51.897 10.9 319 9.4 102450 31
2011-10-20 07:47:47 51°26.29 2°51.893 10.2 318 9.4 102450 31
2011-10-20 07:47:52 51°26.306 2°51.886 13.9 318 9.4 102460 32
2011-10-20 07:47:57 51°26.322 2°51.881 13 318 9.4 102460 32
2011-10-20 07:48:02 51°26.337 2°51.873 13.8 318 9.4 102470 32
2011-10-20 07:48:07 51°26.353 2°51.865 11.2 321 9.4 102470 32
2011-10-20 07:48:12 51°26.369 2°51.857 10.4 325 9.4 102480 32
2011-10-20 07:48:17 51°26.384 2°51.849 13.7 323 9.4 102480 32
2011-10-20 07:48:22 51°26.4 2°51.84 16 325 9.4 102470 31
2011-10-20 07:48:27 51°26.416 2°51.832 11 326 9.4 102470 31
2011-10-20 07:48:32 51°26.431 2°51.822 15.4 325 9.4 102460 33
2011-10-20 07:48:37 51°26.446 2°51.813 16.4 323 9.4 102460 33
2011-10-20 07:48:42 51°26.462 2°51.803 11.1 325 9.5 102460 33
2011-10-20 07:48:47 51°26.477 2°51.794 10.8 325 9.5 102460 33
2011-10-20 07:48:53 51°26.495 2°51.783 10.7 322 9.5 102470 33
2011-10-20 07:48:57 51°26.506 2°51.777 9.9 324 9.5 102470 33
2011-10-20 07:49:02 51°26.518 2°51.77 9.1 320 9.4 102470 31
2011-10-20 07:49:07 51°26.53 2°51.763 15.3 321 9.4 102470 31
2011-10-20 07:49:12 51°26.54 2°51.757 10.7 320 9.4 102490 31
2011-10-20 07:49:17 51°26.55 2°51.752 11.7 320 9.4 102490 31
2011-10-20 07:49:22 51°26.558 2°51.747 8.6 320 9.4 102480 30
2011-10-20 07:49:27 51°26.566 2°51.743 9.4 316 9.4 102480 30
2011-10-20 07:49:32 51°26.573 2°51.738 11 315 9.3 102480 30
2011-10-20 07:49:37 51°26.579 2°51.735 8.7 317 9.3 102480 30
2011-10-20 07:49:42 51°26.585 2°51.733 7.3 317 9.4 102500 31
2011-10-20 07:49:47 51°26.591 2°51.73 7.9 319 9.4 102500 31
2011-10-20 07:49:52 51°26.596 2°51.728 9.1 318 9.4 102490 32
2011-10-20 07:49:57 51°26.6 2°51.725 7.9 318 9.4 102490 32
2011-10-20 07:50:02 51°26.605 2°51.723 8.6 319 9.3 102480 30
2011-10-20 07:50:07 51°26.609 2°51.72 7.8 39 9.3 102480 30
2011-10-20 07:50:12 51°26.612 2°51.718 6.8 23 9.3 102490 31
2011-10-20 07:50:17 51°26.615 2°51.718 6.7 322 9.3 102490 31
2011-10-20 07:50:22 51°26.617 2°51.716 7.4 322 9.3 102490 30
2011-10-20 07:50:27 51°26.62 2°51.716 6.8 320 9.3 102490 30
2011-10-20 07:50:32 51°26.621 2°51.714 6.7 326 9.3 102490 31
2011-10-20 07:50:37 51°26.623 2°51.714 6 326 9.3 102490 31
2011-10-20 07:50:42 51°26.624 2°51.715 6.7 323 9.3 102520 31
2011-10-20 07:50:47 51°26.624 2°51.716 6.8 321 9.3 102520 31
2011-10-20 07:50:52 51°26.625 2°51.717 5.8 322 9.3 102510 31
2011-10-20 07:50:57 51°26.625 2°51.718 7.5 321 9.3 102510 31
2011-10-20 07:51:02 51°26.625 2°51.719 7.5 320 9.3 102510 32
2011-10-20 07:51:07 51°26.625 2°51.722 7.2 317 9.3 102510 32
2011-10-20 07:51:12 51°26.624 2°51.723 8.5 321 9.3 102510 32
2011-10-20 07:51:17 51°26.623 2°51.725 9.3 324 9.3 102510 32
2011-10-20 07:51:24 51°26.622 2°51.728 9 321 9.4 102500 33
2011-10-20 07:51:29 51°26.621 2°51.731 7.3 325 9.4 102500 33
2011-10-20 07:51:35 51°26.62 2°51.732 6.4 324 9.4 102510 32
2011-10-20 07:51:41 51°26.619 2°51.735 6.2 323 9.4 102510 32
2011-10-20 07:51:45 51°26.618 2°51.736 7.1 321 9.4 102480 33
2011-10-20 07:51:51 51°26.616 2°51.739 7 325 9.4 102480 33
2011-10-20 07:51:56 51°26.616 2°51.741 7.4 323 9.4 102490 33
2011-10-20 07:52:01 51°26.615 2°51.743 7.6 319 9.4 102490 33
2011-10-20 07:52:05 51°26.614 2°51.744 7 317 9.5 102510 35
2011-10-20 07:52:10 51°26.613 2°51.747 7.3 31 9.5 102510 35
2011-10-20 07:52:15 51°26.612 2°51.749 6.9 317 9.5 102500 32
2011-10-20 07:52:20 51°26.612 2°51.751 6 321 9.5 102500 32
2011-10-20 07:52:25 51°26.611 2°51.753 5.9 322 9.5 102510 33
2011-10-20 07:52:30 51°26.61 2°51.755 8.3 323 9.5 102510 33
2011-10-20 07:52:35 51°26.609 2°51.756 7.2 321 9.5 102500 34
2011-10-20 07:52:40 51°26.608 2°51.758 7.2 315 9.5 102500 34
2011-10-20 07:52:45 51°26.607 2°51.76 7.2 321 9.5 102500 33
2011-10-20 07:52:49 51°26.606 2°51.762 6.6 318 9.5 102500 33
2011-10-20 07:52:54 51°26.605 2°51.764 6.5 317 9.5 102500 32
2011-10-20 07:52:59 51°26.604 2°51.765 5.6 318 9.5 102500 32
2011-10-20 07:53:04 51°26.603 2°51.767 7.1 316 9.5 102510 32
2011-10-20 07:53:09 51°26.602 2°51.769 6.8 316 9.5 102510 32
2011-10-20 07:53:13 51°26.602 2°51.77 6.4 318 9.5 102510 31
2011-10-20 07:53:18 51°26.601 2°51.77 6.6 315 9.5 102510 31
2011-10-20 07:53:23 51°26.601 2°51.771 7.9 26 9.5 102500 31
2011-10-20 07:53:28 51°26.601 2°51.772 7.1 322 9.5 102500 31
2011-10-20 07:53:33 51°26.601 2°51.773 6.2 327 9.5 102490 31
2011-10-20 07:53:38 51°26.6 2°51.773 6.5 327 9.5 102490 31
2011-10-20 07:53:42 51°26.601 2°51.774 5.7 325 9.5 102510 31
2011-10-20 07:53:47 51°26.601 2°51.774 6.1 333 9.5 102510 31
2011-10-20 07:53:52 51°26.601 2°51.774 7.3 333 9.5 102500 31
2011-10-20 07:53:57 51°26.601 2°51.774 8.2 340 9.5 102500 31
2011-10-20 07:54:02 51°26.602 2°51.775 6.5 341 9.5 102500 31
2011-10-20 07:54:07 51°26.602 2°51.774 6.2 343 9.5 102500 31
2011-10-20 07:54:12 51°26.603 2°51.775 7.5 348 9.5 102510 31
2011-10-20 07:54:17 51°26.603 2°51.774 9.4 349 9.5 102510 31
2011-10-20 07:54:22 51°26.604 2°51.776 7.7 348 9.5 102500 31
2011-10-20 07:54:27 51°26.603 2°51.775 7.1 351 9.5 102500 31
2011-10-20 07:54:33 51°26.604 2°51.776 6.8 347 9.4 102500 32
2011-10-20 07:54:37 51°26.604 2°51.776 5.9 352 9.4 102500 32
2011-10-20 07:54:42 51°26.604 2°51.776 6.7 353 9.5 102490 32
2011-10-20 07:54:47 51°26.604 2°51.776 8.1 354 9.5 102490 32
2011-10-20 07:54:52 51°26.605 2°51.777 8.6 357 9.4 102490 28
2011-10-20 07:54:57 51°26.604 2°51.776 7.5 353 9.4 102490 28
2011-10-20 07:55:02 51°26.605 2°51.777 6.6 352 9.3 102500 29
2011-10-20 07:55:07 51°26.605 2°51.777 7.3 354 9.3 102500 29
2011-10-20 07:55:12 51°26.605 2°51.777 6.3 351 9.3 102500 30
2011-10-20 07:55:17 51°26.605 2°51.777 5.8 355 9.3 102500 30
2011-10-20 07:55:22 51°26.605 2°51.777 7.5 355 9.4 102500 32
2011-10-20 07:55:27 51°26.606 2°51.777 7 350 9.4 102500 32
2011-10-20 07:55:33 51°26.606 2°51.778 6.8 358 9.3 102500 30
2011-10-20 07:55:37 51°26.605 2°51.777 7.5 349 9.3 102500 30
2011-10-20 07:55:42 51°26.606 2°51.777 6.1 348 9.4 102510 33
2011-10-20 07:55:47 51°26.606 2°51.777 5.8 346 9.4 102510 33
2011-10-20 07:55:52 51°26.606 2°51.777 7.3 353 9.4 102510 33
2011-10-20 07:55:57 51°26.605 2°51.777 3.4 346 9.4 102510 33
2011-10-20 07:56:02 51°26.606 2°51.777 6.2 347 9.4 102500 33
2011-10-20 07:56:07 51°26.606 2°51.777 6.7 346 9.4 102500 33
2011-10-20 07:56:13 51°26.606 2°51.778 6.3 350 9.4 102510 34
2011-10-20 07:56:17 51°26.606 2°51.778 6.4 337 9.4 102510 34
2011-10-20 07:56:22 51°26.606 2°51.778 6.6 347 9.4 102500 32
2011-10-20 07:56:27 51°26.606 2°51.778 6.1 344 9.4 102500 32
2011-10-20 07:56:32 51°26.606 2°51.779 7.9 347 9.4 102500 32
2011-10-20 07:56:37 51°26.605 2°51.779 6.9 348 9.4 102500 32
2011-10-20 07:56:42 51°26.607 2°51.78 4.4 343 9.4 102500 32
2011-10-20 07:56:47 51°26.606 2°51.78 7.5 349 9.4 102500 32
2011-10-20 07:56:52 51°26.607 2°51.78 6.5 347 9.5 102510 34
2011-10-20 07:56:57 51°26.607 2°51.78 5.9 349 9.5 102510 34
2011-10-20 07:57:02 51°26.607 2°51.78 6.2 348 9.4 102510 33
2011-10-20 07:57:07 51°26.607 2°51.78 6.5 349 9.4 102510 33
2011-10-20 07:57:13 51°26.608 2°51.78 7.2 347 9.4 102500 32
2011-10-20 07:57:17 51°26.608 2°51.779 7.5 338 9.4 102500 32
2011-10-20 07:57:22 51°26.608 2°51.779 7 339 9.4 102510 32
2011-10-20 07:57:27 51°26.608 2°51.779 9.4 347 9.4 102510 32